Previsão horária em Ababuj

Hoje, 1 Novembro, Domingo

Tempo Temperatura Precipitação Vento Pressão Humidade
00:00 +9°C° 0 mm 1 m/s 651 mmHg 68%
01:00 +9°C° 0 mm 1 m/s 651 mmHg 68%
02:00 +8°C° 0 mm 1 m/s 651 mmHg 68%
03:00 +8°C° 0 mm 1 m/s 651 mmHg 68%
04:00 +8°C° 0 mm 1 m/s 651 mmHg 68%
05:00 +8°C° 0 mm 1 m/s 650 mmHg 68%
06:00 +7°C° 0 mm 1 m/s 650 mmHg 68%
07:00 +10°C° 0 mm 1 m/s 651 mmHg 59%
08:00 +13°C° 0 mm 1 m/s 653 mmHg 50%
09:00 +15°C° 0 mm 1 m/s 654 mmHg 41%
10:00 +16°C° 0 mm 1 m/s 654 mmHg 38%
11:00 +19°C° 0 mm 1 m/s 654 mmHg 35%
12:00 +19°C° 0 mm 2 m/s 654 mmHg 32%
13:00 +19°C° 0 mm 2 m/s 654 mmHg 32%
14:00 +19°C° 0 mm 2 m/s 654 mmHg 31%
15:00 +19°C° 0 mm 2 m/s 653 mmHg 31%
16:00 +18°C° 0 mm 1 m/s 653 mmHg 39%
17:00 +14°C° 0 mm 1 m/s 652 mmHg 47%
18:00 +11°C° 0 mm 0 m/s 651 mmHg 55%
19:00 +11°C° 0 mm 1 m/s 651 mmHg 56%
20:00 +11°C° 0 mm 1 m/s 651 mmHg 58%
21:00 +10°C° 0 mm 1 m/s 651 mmHg 59%
22:00 +10°C° 0 mm 1 m/s 651 mmHg 60%
23:00 +10°C° 0 mm 1 m/s 651 mmHg 60%

Amanhã, 2 Novembro, Segunda-feira

Tempo Temperatura Precipitação Vento Pressão Humidade
00:00 +10°C° 0 mm 1 m/s 650 mmHg 61%
01:00 +9°C° 0 mm 1 m/s 650 mmHg 61%
02:00 +9°C° 0 mm 1 m/s 650 mmHg 62%
03:00 +9°C° 0 mm 1 m/s 650 mmHg 63%
04:00 +8°C° 0 mm 1 m/s 649 mmHg 64%
05:00 +8°C° 0 mm 1 m/s 649 mmHg 65%
06:00 +7°C° 0 mm 1 m/s 649 mmHg 66%
07:00 +10°C° 0 mm 1 m/s 650 mmHg 57%
08:00 +13°C° 0 mm 1 m/s 651 mmHg 47%
09:00 +16°C° 0 mm 1 m/s 652 mmHg 37%
10:00 +18°C° 0 mm 1 m/s 652 mmHg 35%
11:00 +19°C° 0 mm 1 m/s 653 mmHg 32%
12:00 +20°C° 0 mm 1 m/s 653 mmHg 30%
13:00 +21°C° 0 mm 1 m/s 653 mmHg 30%
14:00 +20°C° 0 mm 2 m/s 653 mmHg 30%
15:00 +20°C° 0 mm 2 m/s 652 mmHg 31%
16:00 +17°C° 0 mm 2 m/s 652 mmHg 38%
17:00 +15°C° 0 mm 1 m/s 651 mmHg 46%
18:00 +12°C° 0 mm 1 m/s 650 mmHg 54%
19:00 +12°C° 0 mm 1 m/s 650 mmHg 58%
20:00 +11°C° 0 mm 1 m/s 650 mmHg 61%
21:00 +11°C° 0 mm 1 m/s 650 mmHg 64%
22:00 +10°C° 0 mm 1 m/s 650 mmHg 68%
23:00 +10°C° 0 mm 1 m/s 650 mmHg 71%

Depois de amanhã, 3 Novembro, Terça-feira

Tempo Temperatura Precipitação Vento Pressão Humidade
00:00 +10°C° 0 mm 1 m/s 650 mmHg 75%
01:00 +9°C° 0 mm 1 m/s 650 mmHg 77%
02:00 +9°C° 0 mm 1 m/s 650 mmHg 80%
03:00 +8°C° 0 mm 1 m/s 650 mmHg 83%
04:00 +8°C° 0 mm 1 m/s 650 mmHg 86%
05:00 +8°C° 0 mm 1 m/s 650 mmHg 88%
06:00 +7°C° 0 mm 1 m/s 650 mmHg 90%
07:00 +9°C° 0 mm 1 m/s 651 mmHg 86%
08:00 +10°C° 0 mm 1 m/s 652 mmHg 81%
09:00 +11°C° 0 mm 1 m/s 652 mmHg 76%
10:00 +12°C° 0 mm 2 m/s 653 mmHg 71%
11:00 +13°C° 0 mm 2 m/s 653 mmHg 66%
12:00 +13°C° 0 mm 3 m/s 653 mmHg 61%
13:00 +12°C° 0 mm 3 m/s 653 mmHg 66%
14:00 +12°C° 0 mm 3 m/s 652 mmHg 70%
15:00 +11°C° 0 mm 3 m/s 652 mmHg 75%
16:00 +10°C° 0 mm 3 m/s 652 mmHg 80%
17:00 +9°C° 0 mm 2 m/s 652 mmHg 84%
18:00 +8°C° 0 mm 2 m/s 651 mmHg 89%
19:00 +8°C° 0 mm 2 m/s 652 mmHg 89%
20:00 +9°C° 0 mm 1 m/s 652 mmHg 89%
21:00 +8°C° 0 mm 1 m/s 652 mmHg 89%
22:00 +8°C° 0 mm 1 m/s 652 mmHg 89%
23:00 +8°C° 0 mm 1 m/s 651 mmHg 90%

4 Novembro, Quarta-feira

Tempo Temperatura Precipitação Vento Pressão Humidade
00:00 +8°C° 0 mm 1 m/s 651 mmHg 90%
01:00 +7°C° 0 mm 2 m/s 651 mmHg 91%
02:00 +7°C° 0 mm 2 m/s 650 mmHg 92%
03:00 +6°C° 0 mm 2 m/s 650 mmHg 93%
04:00 +6°C° 0 mm 2 m/s 649 mmHg 92%
05:00 +6°C° 0 mm 2 m/s 649 mmHg 91%
06:00 +6°C° 0 mm 2 m/s 649 mmHg 90%
07:00 +6°C° 0.1 mm 2 m/s 649 mmHg 90%
08:00 +5°C° 0.1 mm 3 m/s 649 mmHg 90%
09:00 +5°C° 0.1 mm 3 m/s 649 mmHg 89%
10:00 +5°C° 0.5 mm 3 m/s 648 mmHg 89%
11:00 +5°C° 0.5 mm 4 m/s 648 mmHg 88%
12:00 +5°C° 0.5 mm 4 m/s 648 mmHg 88%
13:00 +5°C° 0.8 mm 4 m/s 647 mmHg 89%
14:00 +5°C° 0.8 mm 4 m/s 647 mmHg 90%
15:00 +4°C° 0.8 mm 3 m/s 647 mmHg 91%
16:00 +4°C° 0.6 mm 3 m/s 646 mmHg 91%
17:00 +4°C° 0.6 mm 3 m/s 646 mmHg 92%
18:00 +4°C° 0.6 mm 3 m/s 646 mmHg 92%
19:00 +4°C° 0.2 mm 3 m/s 647 mmHg 92%
20:00 +4°C° 0.2 mm 3 m/s 647 mmHg 93%
21:00 +4°C° 0.2 mm 3 m/s 647 mmHg 93%
22:00 +4°C° 0.7 mm 3 m/s 647 mmHg 93%
23:00 +4°C° 0.7 mm 4 m/s 647 mmHg 93%

5 Novembro, Quinta-feira

Tempo Temperatura Precipitação Vento Pressão Humidade
00:00 +4°C° 0.7 mm 4 m/s 647 mmHg 93%
01:00 +3°C° 0.7 mm 5 m/s 647 mmHg 92%
02:00 +3°C° 0.7 mm 6 m/s 647 mmHg 91%
03:00 +4°C° 0.7 mm 7 m/s 647 mmHg 90%
04:00 +3°C° 0 mm 6 m/s 647 mmHg 90%
05:00 +3°C° 0 mm 6 m/s 647 mmHg 91%
06:00 +3°C° 0 mm 5 m/s 647 mmHg 91%
07:00 +4°C° 0.1 mm 6 m/s 647 mmHg 90%
08:00 +5°C° 0.1 mm 7 m/s 648 mmHg 89%
09:00 +6°C° 0.1 mm 7 m/s 648 mmHg 88%
10:00 +6°C° 0.1 mm 8 m/s 648 mmHg 88%
11:00 +6°C° 0.1 mm 8 m/s 648 mmHg 87%
12:00 +6°C° 0.1 mm 8 m/s 648 mmHg 87%
13:00 +6°C° 0.8 mm 8 m/s 648 mmHg 88%
14:00 +7°C° 0.8 mm 8 m/s 648 mmHg 90%
15:00 +7°C° 0.8 mm 8 m/s 648 mmHg 91%
16:00 +8°C° 2.9 mm 7 m/s 648 mmHg 92%
17:00 +8°C° 2.9 mm 7 m/s 648 mmHg 93%
18:00 +8°C° 2.9 mm 6 m/s 648 mmHg 93%
19:00 +7°C° 0.1 mm 6 m/s 648 mmHg 93%
20:00 +7°C° 0.1 mm 6 m/s 649 mmHg 93%
21:00 +6°C° 0.1 mm 7 m/s 649 mmHg 93%
22:00 +7°C° 0.1 mm 6 m/s 649 mmHg 93%
23:00 +7°C° 0.1 mm 6 m/s 649 mmHg 94%

6 Novembro, Sexta-feira

Tempo Temperatura Precipitação Vento Pressão Humidade
00:00 +7°C° 0.1 mm 6 m/s 649 mmHg 94%
01:00 +8°C° 0.1 mm 6 m/s 649 mmHg 93%
02:00 +8°C° 0.1 mm 6 m/s 648 mmHg 93%
03:00 +8°C° 0.1 mm 5 m/s 648 mmHg 92%
04:00 +8°C° 0.1 mm 5 m/s 648 mmHg 92%
05:00 +8°C° 0.1 mm 5 m/s 648 mmHg 92%
06:00 +7°C° 0.1 mm 5 m/s 648 mmHg 92%
07:00 +8°C° 0.1 mm 7 m/s 648 mmHg 89%
08:00 +9°C° 0.1 mm 8 m/s 648 mmHg 87%
09:00 +10°C° 0.1 mm 9 m/s 649 mmHg 84%
10:00 +10°C° 0.3 mm 9 m/s 648 mmHg 83%
11:00 +10°C° 0.3 mm 9 m/s 648 mmHg 82%
12:00 +10°C° 0.3 mm 9 m/s 648 mmHg 82%
13:00 +10°C° 0.1 mm 9 m/s 647 mmHg 82%
14:00 +10°C° 0.1 mm 9 m/s 647 mmHg 82%
15:00 +10°C° 0.1 mm 9 m/s 647 mmHg 81%
16:00 +10°C° 0 mm 9 m/s 646 mmHg 84%
17:00 +9°C° 0 mm 8 m/s 646 mmHg 86%
18:00 +9°C° 0 mm 8 m/s 646 mmHg 88%
19:00 +9°C° 0 mm 8 m/s 646 mmHg 87%
20:00 +8°C° 0 mm 9 m/s 646 mmHg 85%
21:00 +8°C° 0 mm 9 m/s 646 mmHg 83%
22:00 +8°C° 0.1 mm 9 m/s 645 mmHg 85%
23:00 +8°C° 0.1 mm 9 m/s 645 mmHg 86%
Mostrar mais